TimeEDT,TemperatureF,Dew PointF,Humidity,Sea Level PressureIn,VisibilityMPH,Wind Direction,Wind SpeedMPH,Gust SpeedMPH,PrecipitationIn,Events,Conditions,WindDirDegrees,DateUTC
12:54 AM,32.0,24.1,73,30.16,10.0,WNW,6.9,-,N/A,,Clear,290,2012-10-13 04:54:00
1:54 AM,30.0,23.0,75,30.17,10.0,Variable,4.6,-,N/A,,Clear,0,2012-10-13 05:54:00
2:54 AM,30.0,23.0,75,30.18,10.0,West,5.8,-,N/A,,Partly Cloudy,260,2012-10-13 06:54:00
3:54 AM,28.9,23.0,78,30.19,10.0,West,3.5,-,N/A,,Clear,260,2012-10-13 07:54:00
4:54 AM,28.9,23.0,78,30.19,10.0,West,3.5,-,N/A,,Overcast,260,2012-10-13 08:54:00
5:54 AM,28.9,21.9,75,30.21,10.0,WSW,5.8,-,N/A,,Clear,250,2012-10-13 09:54:00
6:54 AM,28.0,21.9,78,30.22,10.0,West,4.6,-,N/A,,Clear,260,2012-10-13 10:54:00
7:54 AM,30.9,23.0,72,30.24,10.0,WSW,5.8,-,N/A,,Clear,250,2012-10-13 11:54:00
8:54 AM,34.0,21.9,61,30.25,10.0,WSW,8.1,-,N/A,,Clear,250,2012-10-13 12:54:00
9:54 AM,37.0,21.0,52,30.24,10.0,WNW,13.8,23.0,N/A,,Clear,300,2012-10-13 13:54:00
10:54 AM,37.9,19.9,48,30.24,10.0,WNW,11.5,21.9,N/A,,Partly Cloudy,290,2012-10-13 14:54:00
11:54 AM,41.0,19.9,43,30.23,10.0,West,8.1,16.1,N/A,,Mostly Cloudy,270,2012-10-13 15:54:00
12:54 PM,41.0,21.0,45,30.22,10.0,West,11.5,21.9,N/A,,Mostly Cloudy,280,2012-10-13 16:54:00
1:54 PM,44.1,19.9,38,30.21,10.0,West,9.2,20.7,N/A,,Scattered Clouds,270,2012-10-13 17:54:00
2:54 PM,41.0,21.0,45,30.22,10.0,NW,15.0,20.7,N/A,,Overcast,320,2012-10-13 18:54:00
3:54 PM,41.0,19.0,41,30.23,10.0,West,12.7,19.6,N/A,,Scattered Clouds,280,2012-10-13 19:54:00
4:54 PM,39.0,19.9,46,30.24,10.0,WNW,6.9,18.4,N/A,,Partly Cloudy,290,2012-10-13 20:54:00
5:35 PM,37.4,21.2,52,30.21,2.5,WNW,4.6,-,N/A,,Haze,290,2012-10-13 21:35:00
5:44 PM,37.4,21.2,52,30.21,10.0,WNW,3.5,-,N/A,,Clear,290,2012-10-13 21:44:00
5:54 PM,37.0,21.0,52,30.25,10.0,Calm,Calm,-,N/A,,Clear,0,2012-10-13 21:54:00
6:54 PM,35.1,21.0,57,30.26,10.0,Calm,Calm,-,N/A,,Clear,0,2012-10-13 22:54:00
8:54 PM,32.0,21.0,64,30.27,10.0,WSW,4.6,-,N/A,,Clear,250,2012-10-14 00:54:00
9:54 PM,28.9,21.0,72,30.27,10.0,SW,4.6,-,N/A,,Clear,220,2012-10-14 01:54:00
10:54 PM,30.0,21.9,72,30.26,10.0,SW,4.6,-,N/A,,Clear,230,2012-10-14 02:54:00